Year,Month,Day,Hour,Minute,Value (Times are PST for temperature in C)
2015,08,12,00,00,15.50
2015,08,12,00,01,15.50
2015,08,12,00,02,15.50
2015,08,12,00,03,15.40
2015,08,12,00,04,15.40
2015,08,12,00,05,15.40
2015,08,12,00,06,15.30
2015,08,12,00,07,15.30
2015,08,12,00,08,15.30
2015,08,12,00,09,15.30
2015,08,12,00,10,15.20
2015,08,12,00,11,15.20
2015,08,12,00,12,15.20
2015,08,12,00,13,15.20
2015,08,12,00,14,15.10
2015,08,12,00,15,15.10
2015,08,12,00,16,15.10
2015,08,12,00,17,15.10
2015,08,12,00,18,15.00
2015,08,12,00,19,15.00
2015,08,12,00,20,15.00
2015,08,12,00,21,14.90
2015,08,12,00,22,14.90
2015,08,12,00,23,14.90
2015,08,12,00,24,14.90
2015,08,12,00,25,14.90
2015,08,12,00,26,14.80
2015,08,12,00,27,14.80
2015,08,12,00,28,14.80
2015,08,12,00,29,14.80
2015,08,12,00,30,14.80
2015,08,12,00,31,14.80
2015,08,12,00,32,14.80
2015,08,12,00,33,14.80
2015,08,12,00,34,14.70
2015,08,12,00,35,14.70
2015,08,12,00,36,14.70
2015,08,12,00,37,14.70
2015,08,12,00,38,14.70
2015,08,12,00,39,14.70
2015,08,12,00,40,14.70
2015,08,12,00,41,14.70
2015,08,12,00,42,14.70
2015,08,12,00,43,14.70
2015,08,12,00,44,14.70
2015,08,12,00,45,14.70
2015,08,12,00,46,14.60
2015,08,12,00,47,14.60
2015,08,12,00,48,14.60
2015,08,12,00,49,14.60
2015,08,12,00,50,14.60
2015,08,12,00,51,14.60
2015,08,12,00,52,14.60
2015,08,12,00,53,14.60
2015,08,12,00,54,14.60
2015,08,12,00,55,14.60
2015,08,12,00,56,14.60
2015,08,12,00,57,14.60
2015,08,12,00,58,14.50
2015,08,12,00,59,14.60
2015,08,12,01,00,14.50
2015,08,12,01,01,14.50
2015,08,12,01,02,14.60
2015,08,12,01,03,14.50
2015,08,12,01,04,14.50
2015,08,12,01,05,14.50
2015,08,12,01,06,14.50
2015,08,12,01,07,14.50
2015,08,12,01,08,14.50
2015,08,12,01,09,14.50
2015,08,12,01,10,14.50
2015,08,12,01,11,14.50
2015,08,12,01,12,14.50
2015,08,12,01,13,14.50
2015,08,12,01,14,14.50
2015,08,12,01,15,14.50
2015,08,12,01,16,14.50
2015,08,12,01,17,14.50
2015,08,12,01,18,14.50
2015,08,12,01,19,14.50
2015,08,12,01,20,14.50
2015,08,12,01,21,14.50
2015,08,12,01,22,14.50
2015,08,12,01,23,14.50
2015,08,12,01,24,14.50
2015,08,12,01,25,14.50
2015,08,12,01,26,14.50
2015,08,12,01,27,14.50
2015,08,12,01,28,14.50
2015,08,12,01,29,14.50
2015,08,12,01,30,14.50
2015,08,12,01,31,14.50
2015,08,12,01,32,14.50
2015,08,12,01,33,14.50
2015,08,12,01,34,14.50
2015,08,12,01,35,14.50
2015,08,12,01,36,14.50
2015,08,12,01,37,14.50
2015,08,12,01,38,14.50
2015,08,12,01,39,14.50
2015,08,12,01,40,14.50
2015,08,12,01,41,14.50
2015,08,12,01,42,14.60
2015,08,12,01,43,14.50
2015,08,12,01,44,14.50
2015,08,12,01,45,14.50
2015,08,12,01,46,14.50
2015,08,12,01,47,14.50
2015,08,12,01,48,14.50
2015,08,12,01,49,14.60
2015,08,12,01,50,14.60
2015,08,12,01,51,14.60
2015,08,12,01,52,14.60
2015,08,12,01,53,14.60
2015,08,12,01,54,14.60
2015,08,12,01,55,14.60
2015,08,12,01,56,14.50
2015,08,12,01,57,14.50
2015,08,12,01,58,14.50
2015,08,12,01,59,14.50
2015,08,12,02,00,14.50
2015,08,12,02,01,14.50
2015,08,12,02,02,14.50
2015,08,12,02,03,14.50
2015,08,12,02,04,14.50
2015,08,12,02,05,14.50
2015,08,12,02,06,14.50
2015,08,12,02,07,14.50
2015,08,12,02,08,14.50
2015,08,12,02,09,14.50
2015,08,12,02,10,14.50
2015,08,12,02,11,14.50
2015,08,12,02,12,14.50
2015,08,12,02,13,14.50
2015,08,12,02,14,14.50
2015,08,12,02,15,14.50
2015,08,12,02,16,14.40
2015,08,12,02,17,14.40
2015,08,12,02,18,14.40
2015,08,12,02,19,14.40
2015,08,12,02,20,14.40
2015,08,12,02,21,14.40
2015,08,12,02,22,14.40
2015,08,12,02,23,14.40
2015,08,12,02,24,14.40
2015,08,12,02,25,14.50
2015,08,12,02,26,14.50
2015,08,12,02,27,14.50
2015,08,12,02,28,14.50
2015,08,12,02,29,14.60
2015,08,12,02,30,14.60
2015,08,12,02,31,14.60
2015,08,12,02,32,14.60
2015,08,12,02,33,14.60
2015,08,12,02,34,14.60
2015,08,12,02,35,14.60
2015,08,12,02,36,14.70
2015,08,12,02,37,14.70
2015,08,12,02,38,14.70
2015,08,12,02,39,14.70
2015,08,12,02,40,14.70
2015,08,12,02,41,14.70
2015,08,12,02,42,14.70
2015,08,12,02,43,14.60
2015,08,12,02,44,14.60
2015,08,12,02,45,14.60
2015,08,12,02,46,14.60
2015,08,12,02,47,14.60
2015,08,12,02,48,14.60
2015,08,12,02,49,14.50
2015,08,12,02,50,14.50
2015,08,12,02,51,14.50
2015,08,12,02,52,14.50
2015,08,12,02,53,14.50
2015,08,12,02,54,14.50
2015,08,12,02,55,14.50
2015,08,12,02,56,14.50
2015,08,12,02,57,14.50
2015,08,12,02,58,14.50
2015,08,12,02,59,14.50
2015,08,12,03,00,14.40
2015,08,12,03,01,14.40
2015,08,12,03,02,14.40
2015,08,12,03,03,14.40
2015,08,12,03,04,14.40
2015,08,12,03,05,14.40
2015,08,12,03,06,14.40
2015,08,12,03,07,14.30
2015,08,12,03,08,14.30
2015,08,12,03,09,14.30
2015,08,12,03,10,14.30
2015,08,12,03,11,14.30
2015,08,12,03,12,14.30
2015,08,12,03,13,14.30
2015,08,12,03,14,14.20
2015,08,12,03,15,14.20
2015,08,12,03,16,14.20
2015,08,12,03,17,14.20
2015,08,12,03,18,14.20
2015,08,12,03,19,14.20
2015,08,12,03,20,14.20
2015,08,12,03,21,14.20
2015,08,12,03,22,14.20
2015,08,12,03,23,14.20
2015,08,12,03,24,14.20
2015,08,12,03,25,14.10
2015,08,12,03,26,14.10
2015,08,12,03,27,14.10
2015,08,12,03,28,14.10
2015,08,12,03,29,14.10
2015,08,12,03,30,14.10
2015,08,12,03,31,14.10
2015,08,12,03,32,14.10
2015,08,12,03,33,14.10
2015,08,12,03,34,14.10
2015,08,12,03,35,14.00
2015,08,12,03,36,14.00
2015,08,12,03,37,14.00
2015,08,12,03,38,14.00
2015,08,12,03,39,14.00
2015,08,12,03,40,13.90
2015,08,12,03,41,13.90
2015,08,12,03,42,13.90
2015,08,12,03,43,13.90
2015,08,12,03,44,13.90
2015,08,12,03,45,13.90
2015,08,12,03,46,13.90
2015,08,12,03,47,13.90
2015,08,12,03,48,13.90
2015,08,12,03,49,13.80
2015,08,12,03,50,13.80
2015,08,12,03,51,13.80
2015,08,12,03,52,13.80
2015,08,12,03,53,13.80
2015,08,12,03,54,13.80
2015,08,12,03,55,13.80
2015,08,12,03,56,13.80
2015,08,12,03,57,13.80
2015,08,12,03,58,13.70
2015,08,12,03,59,13.70
2015,08,12,04,00,13.70
2015,08,12,04,01,13.70
2015,08,12,04,02,13.70
2015,08,12,04,03,13.70
2015,08,12,04,04,13.70
2015,08,12,04,05,13.70
2015,08,12,04,06,13.70
2015,08,12,04,07,13.70
2015,08,12,04,08,13.70
2015,08,12,04,09,13.70
2015,08,12,04,10,13.70
2015,08,12,04,11,13.60
2015,08,12,04,12,13.60
2015,08,12,04,13,13.60
2015,08,12,04,14,13.60
2015,08,12,04,15,13.60
2015,08,12,04,16,13.60
2015,08,12,04,17,13.60
2015,08,12,04,18,13.60
2015,08,12,04,19,13.60
2015,08,12,04,20,13.60
2015,08,12,04,21,13.60
2015,08,12,04,22,13.60
2015,08,12,04,23,13.60
2015,08,12,04,24,13.50
2015,08,12,04,25,13.50
2015,08,12,04,26,13.50
2015,08,12,04,27,13.50
2015,08,12,04,28,13.50
2015,08,12,04,29,13.50
2015,08,12,04,30,13.50
2015,08,12,04,31,13.50
2015,08,12,04,32,13.50
2015,08,12,04,33,13.50
2015,08,12,04,34,13.50
2015,08,12,04,35,13.50
2015,08,12,04,36,13.50
2015,08,12,04,37,13.50
2015,08,12,04,38,13.60
2015,08,12,04,39,13.60
2015,08,12,04,40,13.60
2015,08,12,04,41,13.60
2015,08,12,04,42,13.60
2015,08,12,04,43,13.60
2015,08,12,04,44,13.60
2015,08,12,04,45,13.60
2015,08,12,04,46,13.60
2015,08,12,04,47,13.60
2015,08,12,04,48,13.60
2015,08,12,04,49,13.60
2015,08,12,04,50,13.60
2015,08,12,04,51,13.60
2015,08,12,04,52,13.60
2015,08,12,04,53,13.60
2015,08,12,04,54,13.60
2015,08,12,04,55,13.60
2015,08,12,04,56,13.60
2015,08,12,04,57,13.60
2015,08,12,04,58,13.60
2015,08,12,04,59,13.60
2015,08,12,05,00,13.60
2015,08,12,05,01,13.60
2015,08,12,05,02,13.60
2015,08,12,05,03,13.60
2015,08,12,05,04,13.60
2015,08,12,05,05,13.60
2015,08,12,05,06,13.60
2015,08,12,05,07,13.60
2015,08,12,05,08,13.60
2015,08,12,05,09,13.60
2015,08,12,05,10,13.60
2015,08,12,05,11,13.60
2015,08,12,05,12,13.70
2015,08,12,05,13,13.70
2015,08,12,05,14,13.70
2015,08,12,05,15,13.80
2015,08,12,05,16,13.80
2015,08,12,05,17,13.80
2015,08,12,05,18,13.80
2015,08,12,05,19,13.80
2015,08,12,05,20,13.80
2015,08,12,05,21,13.80
2015,08,12,05,22,13.80
2015,08,12,05,23,13.80
2015,08,12,05,24,13.80
2015,08,12,05,25,13.80
2015,08,12,05,26,13.80
2015,08,12,05,27,13.80
2015,08,12,05,28,13.80
2015,08,12,05,29,13.80
2015,08,12,05,30,13.80
2015,08,12,05,31,13.80
2015,08,12,05,32,13.80
2015,08,12,05,33,13.70
2015,08,12,05,34,13.70
2015,08,12,05,35,13.70
2015,08,12,05,36,13.70
2015,08,12,05,37,13.70
2015,08,12,05,38,13.70
2015,08,12,05,39,13.70
2015,08,12,05,40,13.70
2015,08,12,05,41,13.70
2015,08,12,05,42,13.70
2015,08,12,05,43,13.70
2015,08,12,05,44,13.70
2015,08,12,05,45,13.70
2015,08,12,05,46,13.70
2015,08,12,05,47,13.70
2015,08,12,05,48,13.70
2015,08,12,05,49,13.70
2015,08,12,05,50,13.70
2015,08,12,05,51,13.60
2015,08,12,05,52,13.60
2015,08,12,05,53,13.60
2015,08,12,05,54,13.60
2015,08,12,05,55,13.60
2015,08,12,05,56,13.60
2015,08,12,05,57,13.60
2015,08,12,05,58,13.60
2015,08,12,05,59,13.60
2015,08,12,06,00,13.60
2015,08,12,06,01,13.60
2015,08,12,06,02,13.60
2015,08,12,06,03,13.60
2015,08,12,06,04,13.60
2015,08,12,06,05,13.60
2015,08,12,06,06,13.60
2015,08,12,06,07,13.60
2015,08,12,06,08,13.60
2015,08,12,06,09,13.60
2015,08,12,06,10,13.60
2015,08,12,06,11,13.60
2015,08,12,06,12,13.60
2015,08,12,06,13,13.60
2015,08,12,06,14,13.60
2015,08,12,06,15,13.60
2015,08,12,06,16,13.60
2015,08,12,06,17,13.60
2015,08,12,06,18,13.60
2015,08,12,06,19,13.60
2015,08,12,06,20,13.60
2015,08,12,06,21,13.50
2015,08,12,06,22,13.50
2015,08,12,06,23,13.50
2015,08,12,06,24,13.50
2015,08,12,06,25,13.50
2015,08,12,06,26,13.50
2015,08,12,06,27,13.50
2015,08,12,06,28,13.50
2015,08,12,06,29,13.50
2015,08,12,06,30,13.50
2015,08,12,06,31,13.50
2015,08,12,06,32,13.50
2015,08,12,06,33,13.50
2015,08,12,06,34,13.50
2015,08,12,06,35,13.50
2015,08,12,06,36,13.50
2015,08,12,06,37,13.50
2015,08,12,06,38,13.60
2015,08,12,06,39,13.60
2015,08,12,06,40,13.60
2015,08,12,06,41,13.60
2015,08,12,06,42,13.60
2015,08,12,06,43,13.60
2015,08,12,06,44,13.70
2015,08,12,06,45,13.70
2015,08,12,06,46,13.70
2015,08,12,06,47,13.70
2015,08,12,06,48,13.80
2015,08,12,06,49,13.80
2015,08,12,06,50,13.80
2015,08,12,06,51,13.80
2015,08,12,06,52,13.90
2015,08,12,06,53,13.90
2015,08,12,06,54,13.90
2015,08,12,06,55,13.90
2015,08,12,06,56,14.00
2015,08,12,06,57,14.00
2015,08,12,06,58,14.00
2015,08,12,06,59,14.00
2015,08,12,07,00,14.00
2015,08,12,07,01,14.10
2015,08,12,07,02,14.10
2015,08,12,07,03,14.10
2015,08,12,07,04,14.10
2015,08,12,07,05,14.10
2015,08,12,07,06,14.10
2015,08,12,07,07,14.20
2015,08,12,07,08,14.20
2015,08,12,07,09,14.20
2015,08,12,07,10,14.20
2015,08,12,07,11,14.20
2015,08,12,07,12,14.20
2015,08,12,07,13,14.20
2015,08,12,07,14,14.30
2015,08,12,07,15,14.30
2015,08,12,07,16,14.30
2015,08,12,07,17,14.30
2015,08,12,07,18,14.30
2015,08,12,07,19,14.40
2015,08,12,07,20,14.40
2015,08,12,07,21,14.40
2015,08,12,07,22,14.50
2015,08,12,07,23,14.50
2015,08,12,07,24,14.60
2015,08,12,07,25,14.60
2015,08,12,07,26,14.70
2015,08,12,07,27,14.70
2015,08,12,07,28,14.80
2015,08,12,07,29,14.90
2015,08,12,07,30,14.90
2015,08,12,07,31,15.00
2015,08,12,07,32,15.00
2015,08,12,07,33,15.10
2015,08,12,07,34,15.20
2015,08,12,07,35,15.20
2015,08,12,07,36,15.30
2015,08,12,07,37,15.30
2015,08,12,07,38,15.30
2015,08,12,07,39,15.30
2015,08,12,07,40,15.40
2015,08,12,07,41,15.40
2015,08,12,07,42,15.40
2015,08,12,07,43,15.50
2015,08,12,07,44,15.60
2015,08,12,07,45,15.60
2015,08,12,07,46,15.70
2015,08,12,07,47,15.80
2015,08,12,07,48,15.90
2015,08,12,07,49,16.00
2015,08,12,07,50,16.10
2015,08,12,07,51,16.20
2015,08,12,07,52,16.30
2015,08,12,07,53,16.40
2015,08,12,07,54,16.50
2015,08,12,07,55,16.60
2015,08,12,07,56,16.60
2015,08,12,07,57,16.70
2015,08,12,07,58,16.80
2015,08,12,07,59,16.80
2015,08,12,08,00,16.90
2015,08,12,08,01,17.00
2015,08,12,08,02,17.10
2015,08,12,08,03,17.10
2015,08,12,08,04,17.20
2015,08,12,08,05,17.30
2015,08,12,08,06,17.40
2015,08,12,08,07,17.50
2015,08,12,08,08,17.60
2015,08,12,08,09,17.70
2015,08,12,08,10,17.80
2015,08,12,08,11,17.80
2015,08,12,08,12,17.90
2015,08,12,08,13,17.90
2015,08,12,08,14,18.00
2015,08,12,08,15,18.00
2015,08,12,08,16,18.00
2015,08,12,08,17,18.10
2015,08,12,08,18,18.10
2015,08,12,08,19,18.10
2015,08,12,08,20,18.10
2015,08,12,08,21,18.10
2015,08,12,08,22,18.20
2015,08,12,08,23,18.20
2015,08,12,08,24,18.20
2015,08,12,08,25,18.20
2015,08,12,08,26,18.20
2015,08,12,08,27,18.20
2015,08,12,08,28,18.30
2015,08,12,08,29,18.30
2015,08,12,08,30,18.30
2015,08,12,08,31,18.30
2015,08,12,08,32,18.30
2015,08,12,08,33,18.30
2015,08,12,08,34,18.30
2015,08,12,08,35,18.40
2015,08,12,08,36,18.40
2015,08,12,08,37,18.50
2015,08,12,08,38,18.50
2015,08,12,08,39,18.60
2015,08,12,08,40,18.60
2015,08,12,08,41,18.60
2015,08,12,08,42,18.70
2015,08,12,08,43,18.70
2015,08,12,08,44,18.70
2015,08,12,08,45,18.80
2015,08,12,08,46,18.90
2015,08,12,08,47,18.90
2015,08,12,08,48,19.00
2015,08,12,08,49,19.10
2015,08,12,08,50,19.20
2015,08,12,08,51,19.30
2015,08,12,08,52,19.30
2015,08,12,08,53,19.40
2015,08,12,08,54,19.40
2015,08,12,08,55,19.50
2015,08,12,08,56,19.60
2015,08,12,08,57,19.70
2015,08,12,08,58,19.70
2015,08,12,08,59,19.80
2015,08,12,09,00,19.90
2015,08,12,09,01,19.90
2015,08,12,09,02,19.90
2015,08,12,09,03,19.90
2015,08,12,09,04,20.00
2015,08,12,09,05,20.00
2015,08,12,09,06,20.00
2015,08,12,09,07,20.10
2015,08,12,09,08,20.10
2015,08,12,09,09,20.10
2015,08,12,09,10,20.20
2015,08,12,09,11,20.20
2015,08,12,09,12,20.20
2015,08,12,09,13,20.20
2015,08,12,09,14,20.30
2015,08,12,09,15,20.30
2015,08,12,09,16,20.30
2015,08,12,09,17,20.30
2015,08,12,09,18,20.30
2015,08,12,09,19,20.30
2015,08,12,09,20,20.40
2015,08,12,09,21,20.40
2015,08,12,09,22,20.50
2015,08,12,09,23,20.50
2015,08,12,09,24,20.60
2015,08,12,09,25,20.60
2015,08,12,09,26,20.70
2015,08,12,09,27,20.70
2015,08,12,09,28,20.80
2015,08,12,09,29,20.70
2015,08,12,09,30,20.70
2015,08,12,09,31,20.70
2015,08,12,09,32,20.70
2015,08,12,09,33,20.60
2015,08,12,09,34,20.50
2015,08,12,09,35,20.50
2015,08,12,09,36,20.40
2015,08,12,09,37,20.30
2015,08,12,09,38,20.30
2015,08,12,09,39,20.30
2015,08,12,09,40,20.20
2015,08,12,09,41,20.20
2015,08,12,09,42,20.20
2015,08,12,09,43,20.20
2015,08,12,09,44,20.10
2015,08,12,09,45,20.10
2015,08,12,09,46,20.10
2015,08,12,09,47,20.10
2015,08,12,09,48,20.10
2015,08,12,09,49,20.10
2015,08,12,09,50,20.10
2015,08,12,09,51,20.10
2015,08,12,09,52,20.20
2015,08,12,09,53,20.20
2015,08,12,09,54,20.30
2015,08,12,09,55,20.30
2015,08,12,09,56,20.40
2015,08,12,09,57,20.50
2015,08,12,09,58,20.60
2015,08,12,09,59,20.70
2015,08,12,10,00,20.80
2015,08,12,10,01,21.00
2015,08,12,10,02,21.10
2015,08,12,10,03,21.20
2015,08,12,10,04,21.30
2015,08,12,10,05,21.40
2015,08,12,10,06,21.40
2015,08,12,10,07,21.50
2015,08,12,10,08,21.60
2015,08,12,10,09,21.70
2015,08,12,10,10,21.70
2015,08,12,10,11,21.80
2015,08,12,10,12,21.80
2015,08,12,10,13,21.80
2015,08,12,10,14,21.80
2015,08,12,10,15,21.90
2015,08,12,10,16,21.90
2015,08,12,10,17,21.90
2015,08,12,10,18,21.90
2015,08,12,10,19,21.90
2015,08,12,10,20,21.90
2015,08,12,10,21,21.90
2015,08,12,10,22,22.00
2015,08,12,10,23,22.00
2015,08,12,10,24,22.00
2015,08,12,10,25,22.00
2015,08,12,10,26,21.90
2015,08,12,10,27,21.90
2015,08,12,10,28,21.90
2015,08,12,10,29,21.90
2015,08,12,10,30,21.90
2015,08,12,10,31,21.90
2015,08,12,10,32,22.00
2015,08,12,10,33,22.00
2015,08,12,10,34,22.10
2015,08,12,10,35,22.20
2015,08,12,10,36,22.30
2015,08,12,10,37,22.30
2015,08,12,10,38,22.40
2015,08,12,10,39,22.50
2015,08,12,10,40,22.60
2015,08,12,10,41,22.70
2015,08,12,10,42,22.80
2015,08,12,10,43,22.90
2015,08,12,10,44,22.90
2015,08,12,10,45,22.90
2015,08,12,10,46,22.90
2015,08,12,10,47,22.80
2015,08,12,10,48,22.80
2015,08,12,10,49,22.70
2015,08,12,10,50,22.60
2015,08,12,10,51,22.50
2015,08,12,10,52,22.30
2015,08,12,10,53,22.20
2015,08,12,10,54,22.20
2015,08,12,10,55,22.10
2015,08,12,10,56,22.10
2015,08,12,10,57,22.10
2015,08,12,10,58,22.10
2015,08,12,10,59,22.10
2015,08,12,11,00,22.10
2015,08,12,11,01,22.10
2015,08,12,11,02,22.10
2015,08,12,11,03,22.10
2015,08,12,11,04,22.10
2015,08,12,11,05,22.10
2015,08,12,11,06,22.10
2015,08,12,11,07,22.10
2015,08,12,11,08,22.20
2015,08,12,11,09,22.20
2015,08,12,11,10,22.30
2015,08,12,11,11,22.40
2015,08,12,11,12,22.40
2015,08,12,11,13,22.60
2015,08,12,11,14,22.70
2015,08,12,11,15,22.80
2015,08,12,11,16,23.00
2015,08,12,11,17,23.10
2015,08,12,11,18,23.20
2015,08,12,11,19,23.40
2015,08,12,11,20,23.50
2015,08,12,11,21,23.60
2015,08,12,11,22,23.70
2015,08,12,11,23,23.90
2015,08,12,11,24,24.00
2015,08,12,11,25,24.10
2015,08,12,11,26,24.20
2015,08,12,11,27,24.20
2015,08,12,11,28,24.30
2015,08,12,11,29,24.30
2015,08,12,11,30,24.40
2015,08,12,11,31,24.40
2015,08,12,11,32,24.50
2015,08,12,11,33,24.50
2015,08,12,11,34,24.50
2015,08,12,11,35,24.40
2015,08,12,11,36,24.20
2015,08,12,11,37,23.90
2015,08,12,11,38,23.50
2015,08,12,11,39,23.20
2015,08,12,11,40,22.90
2015,08,12,11,41,22.60
2015,08,12,11,42,22.30
2015,08,12,11,43,22.10
2015,08,12,11,44,21.90
2015,08,12,11,45,21.70
2015,08,12,11,46,21.60
2015,08,12,11,47,21.40
2015,08,12,11,48,21.30
2015,08,12,11,49,21.20
2015,08,12,11,50,21.10
2015,08,12,11,51,21.00
2015,08,12,11,52,20.90
2015,08,12,11,53,20.80
2015,08,12,11,54,20.80
2015,08,12,11,55,20.70
2015,08,12,11,56,20.70
2015,08,12,11,57,20.70
2015,08,12,11,58,20.70
2015,08,12,11,59,20.60
2015,08,12,12,00,20.60
2015,08,12,12,01,20.60
2015,08,12,12,02,20.60
2015,08,12,12,03,20.60
2015,08,12,12,04,20.50
2015,08,12,12,05,20.50
2015,08,12,12,06,20.50
2015,08,12,12,07,20.40
2015,08,12,12,08,20.40
2015,08,12,12,09,20.40
2015,08,12,12,10,20.40
2015,08,12,12,11,20.40
2015,08,12,12,12,20.40
2015,08,12,12,13,20.40
2015,08,12,12,14,20.50
2015,08,12,12,15,20.50
2015,08,12,12,16,20.50
2015,08,12,12,17,20.60
2015,08,12,12,18,20.70
2015,08,12,12,19,20.70
2015,08,12,12,20,20.80
2015,08,12,12,21,20.80
2015,08,12,12,22,20.80
2015,08,12,12,23,20.70
2015,08,12,12,24,20.60
2015,08,12,12,25,20.40
2015,08,12,12,26,20.20
2015,08,12,12,27,19.90
2015,08,12,12,28,19.70
2015,08,12,12,29,19.50
2015,08,12,12,30,19.30
2015,08,12,12,31,19.20
2015,08,12,12,32,19.10
2015,08,12,12,33,19.10
2015,08,12,12,34,19.10
2015,08,12,12,35,19.10
2015,08,12,12,36,19.10
2015,08,12,12,37,19.10
2015,08,12,12,38,19.10
2015,08,12,12,39,19.10
2015,08,12,12,40,19.10
2015,08,12,12,41,19.10
2015,08,12,12,42,19.20
2015,08,12,12,43,19.20
2015,08,12,12,44,19.20
2015,08,12,12,45,19.20
2015,08,12,12,46,19.20
2015,08,12,12,47,19.20
2015,08,12,12,48,19.20
2015,08,12,12,49,19.20
2015,08,12,12,50,19.20
2015,08,12,12,51,19.30
2015,08,12,12,52,19.30
2015,08,12,12,53,19.40
2015,08,12,12,54,19.40
2015,08,12,12,55,19.50
2015,08,12,12,56,19.50
2015,08,12,12,57,19.60
2015,08,12,12,58,19.60
2015,08,12,12,59,19.70
2015,08,12,13,00,19.70
2015,08,12,13,01,19.80
2015,08,12,13,02,19.90
2015,08,12,13,03,20.00
2015,08,12,13,04,20.00
2015,08,12,13,05,20.10
2015,08,12,13,06,20.20
2015,08,12,13,07,20.30
2015,08,12,13,08,20.50
2015,08,12,13,09,20.60
2015,08,12,13,10,20.70
2015,08,12,13,11,20.80
2015,08,12,13,12,20.90
2015,08,12,13,13,21.00
2015,08,12,13,14,21.10
2015,08,12,13,15,21.20
2015,08,12,13,16,21.40
2015,08,12,13,17,21.50
2015,08,12,13,18,21.60
2015,08,12,13,19,21.70
2015,08,12,13,20,21.80
2015,08,12,13,21,21.90
2015,08,12,13,22,22.00
2015,08,12,13,23,22.10
2015,08,12,13,24,22.20
2015,08,12,13,25,22.30
2015,08,12,13,26,22.40
2015,08,12,13,27,22.50
2015,08,12,13,28,22.60
2015,08,12,13,29,22.70
2015,08,12,13,30,22.80
2015,08,12,13,31,23.00
2015,08,12,13,32,23.10
2015,08,12,13,33,23.20
2015,08,12,13,34,23.30
2015,08,12,13,35,23.40
2015,08,12,13,36,23.60
2015,08,12,13,37,23.70
2015,08,12,13,38,23.80
2015,08,12,13,39,24.00
2015,08,12,13,40,24.10
2015,08,12,13,41,24.20
2015,08,12,13,42,24.30
2015,08,12,13,43,24.50
2015,08,12,13,44,24.50
2015,08,12,13,45,24.70
2015,08,12,13,46,24.80
2015,08,12,13,47,24.90
2015,08,12,13,48,25.00
2015,08,12,13,49,25.10
2015,08,12,13,50,25.20
2015,08,12,13,51,25.30
2015,08,12,13,52,25.30
2015,08,12,13,53,25.40
2015,08,12,13,54,25.20
2015,08,12,13,55,24.90
2015,08,12,13,56,24.70
2015,08,12,13,57,24.40
2015,08,12,13,58,24.20
2015,08,12,13,59,24.00
2015,08,12,14,00,23.80
2015,08,12,14,01,23.70
2015,08,12,14,02,23.50
2015,08,12,14,03,23.40
2015,08,12,14,04,23.20
2015,08,12,14,05,23.10
2015,08,12,14,06,22.90
2015,08,12,14,07,22.80
2015,08,12,14,08,22.50
2015,08,12,14,09,22.30
2015,08,12,14,10,22.00
2015,08,12,14,11,21.80
2015,08,12,14,12,21.60
2015,08,12,14,13,21.50
2015,08,12,14,14,21.40
2015,08,12,14,15,21.40
2015,08,12,14,16,21.30
2015,08,12,14,17,21.20
2015,08,12,14,18,21.20
2015,08,12,14,19,21.10
2015,08,12,14,20,21.10
2015,08,12,14,21,21.10
2015,08,12,14,22,21.20
2015,08,12,14,23,21.20
2015,08,12,14,24,21.20
2015,08,12,14,25,21.30
2015,08,12,14,26,21.30
2015,08,12,14,27,21.30
2015,08,12,14,28,21.30
2015,08,12,14,29,21.30
2015,08,12,14,30,21.30
2015,08,12,14,31,21.30
2015,08,12,14,32,21.40
2015,08,12,14,33,21.50
2015,08,12,14,34,21.50
2015,08,12,14,35,21.40
2015,08,12,14,36,21.40
2015,08,12,14,37,21.30
2015,08,12,14,38,21.30
2015,08,12,14,39,21.30
2015,08,12,14,40,21.30
2015,08,12,14,41,21.30
2015,08,12,14,42,21.40
2015,08,12,14,43,21.40
2015,08,12,14,44,21.30
2015,08,12,14,45,21.30
2015,08,12,14,46,21.30
2015,08,12,14,47,21.30
2015,08,12,14,48,21.30
2015,08,12,14,49,21.40
2015,08,12,14,50,21.40
2015,08,12,14,51,21.50
2015,08,12,14,52,21.60
2015,08,12,14,53,21.70
2015,08,12,14,54,21.80
2015,08,12,14,55,21.80
2015,08,12,14,56,21.80
2015,08,12,14,57,21.80
2015,08,12,14,58,21.80
2015,08,12,14,59,21.70
2015,08,12,15,00,21.70
2015,08,12,15,01,21.70
2015,08,12,15,02,21.70
2015,08,12,15,03,21.70
2015,08,12,15,04,21.70
2015,08,12,15,05,21.70
2015,08,12,15,06,21.80
2015,08,12,15,07,21.90
2015,08,12,15,08,21.90
2015,08,12,15,09,21.90
2015,08,12,15,10,22.00
2015,08,12,15,11,22.00
2015,08,12,15,12,22.10
2015,08,12,15,13,22.20
2015,08,12,15,14,22.30
2015,08,12,15,15,22.30
2015,08,12,15,16,22.40
2015,08,12,15,17,22.60
2015,08,12,15,18,22.70
2015,08,12,15,19,22.80
2015,08,12,15,20,22.90
2015,08,12,15,21,22.90
2015,08,12,15,22,22.90
2015,08,12,15,23,22.90
2015,08,12,15,24,22.90
2015,08,12,15,25,22.80
2015,08,12,15,26,22.70
2015,08,12,15,27,22.70
2015,08,12,15,28,22.70
2015,08,12,15,29,22.70
2015,08,12,15,30,22.60
2015,08,12,15,31,22.50
2015,08,12,15,32,22.40
2015,08,12,15,33,22.30
2015,08,12,15,34,22.30
2015,08,12,15,35,22.20
2015,08,12,15,36,22.10
2015,08,12,15,37,21.90
2015,08,12,15,38,21.80
2015,08,12,15,39,21.70
2015,08,12,15,40,21.60
2015,08,12,15,41,21.60
2015,08,12,15,42,21.60
2015,08,12,15,43,21.60
2015,08,12,15,44,21.60
2015,08,12,15,45,21.60
2015,08,12,15,46,21.70
2015,08,12,15,47,21.70
2015,08,12,15,48,21.80
2015,08,12,15,49,21.90
2015,08,12,15,50,21.90
2015,08,12,15,51,22.00
2015,08,12,15,52,22.10
2015,08,12,15,53,22.30
2015,08,12,15,54,22.40
2015,08,12,15,55,22.50
2015,08,12,15,56,22.60
2015,08,12,15,57,22.70
2015,08,12,15,58,22.80
2015,08,12,15,59,22.90
2015,08,12,16,00,23.00
2015,08,12,16,01,23.00
2015,08,12,16,02,23.10
2015,08,12,16,03,23.20
2015,08,12,16,04,23.30
2015,08,12,16,05,23.40
2015,08,12,16,06,23.50
2015,08,12,16,07,23.50
2015,08,12,16,08,23.60
2015,08,12,16,09,23.60
2015,08,12,16,10,23.60
2015,08,12,16,11,23.60
2015,08,12,16,12,23.50
2015,08,12,16,13,23.50
2015,08,12,16,14,23.40
2015,08,12,16,15,23.30
2015,08,12,16,16,23.20
2015,08,12,16,17,23.20
2015,08,12,16,18,23.10
2015,08,12,16,19,23.00
2015,08,12,16,20,23.00
2015,08,12,16,21,22.90
2015,08,12,16,22,22.80
2015,08,12,16,23,22.70
2015,08,12,16,24,22.70
2015,08,12,16,25,22.60
2015,08,12,16,26,22.60
2015,08,12,16,27,22.50
2015,08,12,16,28,22.40
2015,08,12,16,29,22.30
2015,08,12,16,30,22.20
2015,08,12,16,31,22.10
2015,08,12,16,32,22.00
2015,08,12,16,33,21.90
2015,08,12,16,34,21.80
2015,08,12,16,35,21.70
2015,08,12,16,36,21.60
2015,08,12,16,37,21.50
2015,08,12,16,38,21.40
2015,08,12,16,39,21.30
2015,08,12,16,40,21.30
2015,08,12,16,41,21.20
2015,08,12,16,42,21.10
2015,08,12,16,43,21.00
2015,08,12,16,44,21.00
2015,08,12,16,45,20.80
2015,08,12,16,46,20.70
2015,08,12,16,47,20.70
2015,08,12,16,48,20.60
2015,08,12,16,49,20.60
2015,08,12,16,50,20.50
2015,08,12,16,51,20.50
2015,08,12,16,52,20.50
2015,08,12,16,53,20.40
2015,08,12,16,54,20.40
2015,08,12,16,55,20.40
2015,08,12,16,56,20.40
2015,08,12,16,57,20.30
2015,08,12,16,58,20.30
2015,08,12,16,59,20.30
2015,08,12,17,00,20.30
2015,08,12,17,01,20.30
2015,08,12,17,02,20.30
2015,08,12,17,03,20.30
2015,08,12,17,04,20.20
2015,08,12,17,05,20.20
2015,08,12,17,06,20.10
2015,08,12,17,07,20.10
2015,08,12,17,08,20.10
2015,08,12,17,09,20.10
2015,08,12,17,10,20.10
2015,08,12,17,11,20.10
2015,08,12,17,12,20.20
2015,08,12,17,13,20.30
2015,08,12,17,14,20.40
2015,08,12,17,15,20.50
2015,08,12,17,16,20.60
2015,08,12,17,17,20.70
2015,08,12,17,18,20.90
2015,08,12,17,19,21.00